TimePST,TemperatureF,Dew PointF,Humidity,Sea Level PressureIn,VisibilityMPH,Wind Direction,Wind SpeedMPH,Gust SpeedMPH,PrecipitationIn,Events,Conditions,WindDirDegrees,DateUTC
12:56 AM,35.1,21.9,59,30.38,10.0,SE,8.1,-,N/A,,Overcast,130,2013-01-05 08:56:00
1:56 AM,36.0,16.0,44,30.39,10.0,ESE,6.9,-,N/A,,Overcast,120,2013-01-05 09:56:00
2:56 AM,34.0,14.0,44,30.39,10.0,East,3.5,-,N/A,,Scattered Clouds,100,2013-01-05 10:56:00
3:56 AM,30.9,15.1,52,30.38,10.0,SE,9.2,-,N/A,,Clear,130,2013-01-05 11:56:00
4:56 AM,30.9,15.1,52,30.38,10.0,SSE,8.1,-,N/A,,Clear,150,2013-01-05 12:56:00
5:56 AM,30.9,15.1,52,30.38,10.0,SE,4.6,-,N/A,,Clear,130,2013-01-05 13:56:00
6:56 AM,30.9,14.0,50,30.37,10.0,ESE,6.9,21.9,N/A,,Clear,110,2013-01-05 14:56:00
7:56 AM,30.9,14.0,50,30.37,10.0,SE,11.5,-,N/A,,Clear,140,2013-01-05 15:56:00
8:56 AM,32.0,14.0,48,30.37,10.0,SSE,12.7,18.4,N/A,,Clear,150,2013-01-05 16:56:00
9:56 AM,35.1,14.0,42,30.35,10.0,SE,17.3,-,N/A,,Clear,140,2013-01-05 17:56:00
10:56 AM,36.0,14.0,41,30.32,10.0,SE,17.3,-,N/A,,Clear,140,2013-01-05 18:56:00
11:56 AM,37.0,15.1,41,30.28,10.0,SE,18.4,-,N/A,,Clear,140,2013-01-05 19:56:00
12:56 PM,37.0,19.0,48,30.29,10.0,SW,5.8,-,N/A,,Clear,220,2013-01-05 20:56:00
1:56 PM,35.1,21.0,57,30.29,10.0,WSW,9.2,-,N/A,,Clear,250,2013-01-05 21:56:00
2:56 PM,33.1,21.9,64,30.32,10.0,West,8.1,-,N/A,,Clear,280,2013-01-05 22:56:00
3:56 PM,30.9,21.9,69,30.32,10.0,West,5.8,-,N/A,,Clear,270,2013-01-05 23:56:00
4:56 PM,30.0,23.0,75,30.31,10.0,Calm,Calm,-,N/A,,Clear,0,2013-01-06 00:56:00
5:56 PM,30.9,23.0,72,30.30,10.0,Calm,Calm,-,N/A,,Clear,0,2013-01-06 01:56:00
6:56 PM,30.0,23.0,75,30.28,10.0,NW,4.6,-,N/A,,Mostly Cloudy,310,2013-01-06 02:56:00
7:56 PM,30.0,24.1,79,30.27,10.0,NNW,3.5,-,N/A,,Overcast,330,2013-01-06 03:56:00
8:56 PM,30.9,24.1,76,30.26,10.0,South,3.5,-,N/A,,Overcast,180,2013-01-06 04:56:00
9:56 PM,30.9,24.1,76,30.27,10.0,Calm,Calm,-,N/A,,Overcast,0,2013-01-06 05:56:00
10:56 PM,30.9,24.1,76,30.26,10.0,West,3.5,-,N/A,,Overcast,270,2013-01-06 06:56:00
11:56 PM,30.9,23.0,72,30.25,10.0,Calm,Calm,-,N/A,,Overcast,0,2013-01-06 07:56:00